Terminal Aerodrome Forecast
Issued by NWS Upton, NY

Home | Current Version | Previous Version | Text Only | Print | Product List | Glossary On
Versions: 1 2 3 4 5 6 7 8 9 10 11 12 13 14 15 16 17 18 19 20 21 22 23 24 25 26 27 28
000
FTUS41 KOKX 240535
TAFISP
TAF
KISP 240535Z 2406/2506 15013G23KT P6SM BKN025 BKN250
     FM240700 15016G29KT P6SM OVC025
     FM241000 16016G28KT P6SM OVC025 WS020/17050KT
     FM241500 17020G35KT 3SM SHRA SCT005 OVC012 WS020/17050KT
     FM241900 17019G36KT 2SM +SHRA VCTS SCT005CB OVC012
      WS020/17050KT
     FM250200 19018G26KT 2SM +SHRA VCTS SCT005CB OVC012
      WS020/17050KT=

USA.gov is the U.S. government's official web portal to all federal, state and local government web resources and services.